| time (UTC) | temp C | wind direction | speed KPH | gust KPH | rain 1hr cm | rain 24hr cm | rain mn cm | humidity % | barometer mb |
| 20260508050040 | 9 | 0 | 0.0 | 0.0 | 0.00 | 0.64 | 0.00 | 97 | 1014.0 |
| 20260508044546 | 10 | 0 | 0.0 | 0.0 | 0.00 | 1.07 | 0.00 | 97 | 1013.8 |
| 20260508043038 | 10 | 0 | 0.0 | 0.0 | 0.00 | 1.07 | 0.00 | 97 | 1013.7 |
| 20260508041550 | 10 | 0 | 0.0 | 0.0 | 0.00 | 1.07 | 0.00 | 97 | 1013.7 |
| 20260508040048 | 10 | 0 | 0.0 | 0.0 | 0.00 | 1.07 | 0.00 | 97 | 1013.6 |
| 20260508034540 | 10 | 0 | 0.0 | 0.0 | 0.00 | 1.12 | 1.07 | 97 | 1013.5 |
| 20260508033039 | 11 | 0 | 0.0 | 0.0 | 0.00 | 1.12 | 1.07 | 97 | 1013.1 |
| 20260508031550 | 11 | 0 | 0.0 | 0.0 | 0.00 | 1.12 | 1.07 | 97 | 1013.1 |
| 20260508030054 | 11 | 0 | 0.0 | 0.0 | 0.00 | 1.12 | 1.07 | 97 | 1013.3 |
| 20260508024542 | 11 | 0 | 0.0 | 0.0 | 0.00 | 1.17 | 1.07 | 97 | 1013.2 |
| 20260508023045 | 11 | 0 | 0.0 | 0.0 | 0.00 | 1.17 | 1.07 | 97 | 1013.0 |
| 20260508021538 | 11 | 0 | 0.0 | 0.0 | 0.00 | 1.17 | 1.07 | 97 | 1012.9 |
| 20260508020037 | 12 | 0 | 0.0 | 0.0 | 0.00 | 1.17 | 1.07 | 97 | 1012.6 |
| 20260508014537 | 12 | 0 | 0.0 | 0.0 | 0.00 | 1.17 | 1.07 | 97 | 1012.6 |
| 20260508013037 | 12 | 0 | 0.0 | 0.0 | 0.00 | 1.17 | 1.07 | 97 | 1012.0 |
| 20260508011549 | 12 | 0 | 0.0 | 1.6 | 0.00 | 1.17 | 1.07 | 97 | 1011.5 |
| 20260508010042 | 12 | 0 | 0.0 | 0.0 | 0.00 | 1.17 | 1.07 | 97 | 1011.8 |
| 20260508004539 | 12 | 0 | 0.0 | 0.0 | 0.00 | 1.17 | 1.07 | 97 | 1011.7 |
| 20260508003038 | 12 | 0 | 0.0 | 0.0 | 0.00 | 1.17 | 1.07 | 96 | 1011.6 |
| 20260508001540 | 12 | 0 | 0.0 | 1.6 | 0.00 | 1.17 | 1.07 | 96 | 1011.4 |
| 20260508000037 | 12 | 157 | 0.0 | 0.0 | 0.00 | 1.17 | 1.07 | 96 | 1011.4 |
| 20260507234542 | 12 | 0 | 0.0 | 3.2 | 0.00 | 1.17 | 1.07 | 96 | 1011.0 |
| 20260507233040 | 12 | 110 | 0.0 | 3.2 | 0.00 | 1.17 | 1.07 | 96 | 1010.9 |
| 20260507231550 | 12 | 0 | 0.0 | 6.4 | 0.00 | 1.17 | 1.07 | 96 | 1010.6 |
| 20260507230040 | 12 | 0 | 0.0 | 1.6 | 0.00 | 1.17 | 1.07 | 96 | 1010.5 |
| 20260507224551 | 12 | 0 | 0.0 | 4.8 | 0.00 | 1.17 | 1.07 | 96 | 1010.6 |
| 20260507223048 | 12 | 261 | 0.0 | 9.7 | 0.00 | 1.17 | 1.07 | 96 | 1010.5 |
| 20260507221543 | 12 | 37 | 0.0 | 9.7 | 0.00 | 1.17 | 1.07 | 96 | 1010.0 |
| 20260507220040 | 13 | 77 | 0.0 | 8.0 | 0.00 | 1.14 | 1.04 | 95 | 1010.4 |
| 20260507214540 | 13 | 0 | 0.0 | 6.4 | 0.00 | 1.14 | 1.04 | 95 | 1010.4 |
| 20260507213041 | 13 | 42 | 0.0 | 3.2 | 0.00 | 1.14 | 1.04 | 95 | 1010.1 |
| 20260507211537 | 13 | 0 | 0.0 | 3.2 | 0.00 | 1.14 | 1.04 | 95 | 1010.3 |
| 20260507210108 | 13 | 0 | 0.0 | 14.5 | 0.00 | 1.14 | 1.04 | 94 | 1010.2 |
| 20260507204541 | 13 | 0 | 0.0 | 4.8 | 0.00 | 1.14 | 1.04 | 95 | 1010.1 |
| 20260507203037 | 13 | 218 | 0.0 | 9.7 | 0.00 | 1.14 | 1.04 | 95 | 1009.7 |
| 20260507201538 | 13 | 0 | 0.0 | 3.2 | 0.00 | 1.14 | 1.04 | 96 | 1009.6 |
| 20260507200051 | 14 | 129 | 0.0 | 4.8 | 0.00 | 1.14 | 1.04 | 96 | 1009.6 |
| 20260507194537 | 14 | 70 | 0.0 | 3.2 | 0.00 | 1.17 | 1.04 | 96 | 1009.5 |
| 20260507193105 | 14 | 0 | 0.0 | 4.8 | 0.00 | 1.17 | 1.04 | 96 | 1009.5 |
| 20260507191552 | 14 | 0 | 0.0 | 3.2 | 0.00 | 1.17 | 1.04 | 96 | 1009.7 |
| 20260507190040 | 14 | 0 | 0.0 | 3.2 | 0.00 | 1.17 | 1.04 | 96 | 1009.9 |
| 20260507184537 | 13 | 32 | 1.6 | 8.0 | 0.00 | 1.50 | 1.04 | 96 | 1009.7 |
| 20260507183040 | 13 | 53 | 0.0 | 9.7 | 0.10 | 1.50 | 1.04 | 96 | 1009.5 |
| 20260507181537 | 14 | 223 | 0.0 | 3.2 | 0.10 | 1.50 | 1.02 | 96 | 1010.0 |
| 20260507180044 | 15 | 106 | 0.0 | 9.7 | 0.10 | 1.50 | 1.02 | 96 | 1009.3 |
| 20260507174541 | 15 | 224 | 0.0 | 4.8 | 0.10 | 1.50 | 1.02 | 95 | 1009.7 |
| 20260507173040 | 16 | 0 | 0.0 | 6.4 | 0.03 | 1.40 | 0.94 | 94 | 1009.7 |
| 20260507171536 | 18 | 70 | 0.0 | 3.2 | 0.03 | 1.37 | 0.91 | 96 | 1009.0 |
| 20260507170040 | 19 | 0 | 0.0 | 1.6 | 0.05 | 1.37 | 0.91 | 98 | 1008.4 |
| 20260507164538 | 19 | 0 | 0.0 | 0.0 | 0.08 | 1.37 | 0.91 | 98 | 1008.5 |
| 20260507163042 | 19 | 0 | 0.0 | 0.0 | 0.08 | 1.35 | 0.89 | 98 | 1008.7 |
| 20260507161539 | 18 | 0 | 0.0 | 3.2 | 0.08 | 1.32 | 0.86 | 98 | 1009.1 |
| 20260507160057 | 19 | 0 | 0.0 | 3.2 | 0.08 | 1.30 | 0.84 | 98 | 1010.0 |
| 20260507154540 | 19 | 0 | 0.0 | 1.6 | 0.08 | 1.27 | 0.81 | 99 | 1009.9 |
| 20260507153037 | 19 | 0 | 0.0 | 0.0 | 0.08 | 1.24 | 0.79 | 99 | 1009.8 |
| 20260507151544 | 19 | 0 | 0.0 | 3.2 | 0.10 | 1.24 | 0.79 | 99 | 1009.4 |
| 20260507150041 | 19 | 0 | 0.0 | 0.0 | 0.10 | 1.22 | 0.76 | 99 | 1009.6 |
| 20260507144550 | 19 | 0 | 0.0 | 0.0 | 0.08 | 1.17 | 0.71 | 99 | 1009.7 |
| 20260507143038 | 19 | 0 | 0.0 | 0.0 | 0.08 | 1.14 | 0.69 | 99 | 1009.1 |
| 20260507141537 | 18 | 0 | 0.0 | 0.0 | 0.08 | 1.12 | 0.66 | 99 | 1009.6 |
| 20260507140037 | 18 | 0 | 0.0 | 0.0 | 0.08 | 1.12 | 0.64 | 99 | 1009.5 |
| 20260507134549 | 18 | 0 | 0.0 | 1.6 | 0.05 | 1.09 | 0.64 | 99 | 1009.6 |
| 20260507133047 | 18 | 0 | 0.0 | 1.6 | 0.05 | 1.07 | 0.61 | 99 | 1010.4 |
| 20260507131537 | 18 | 0 | 0.0 | 0.0 | 0.03 | 1.04 | 0.58 | 99 | 1010.5 |
| 20260507130041 | 18 | 0 | 0.0 | 0.0 | 0.00 | 1.02 | 0.56 | 99 | 1010.1 |
| 20260507124538 | 18 | 0 | 0.0 | 0.0 | 0.00 | 1.02 | 0.56 | 99 | 1010.2 |
| 20260507123043 | 18 | 0 | 0.0 | 0.0 | 0.00 | 1.02 | 0.56 | 99 | 1010.4 |
| 20260507121538 | 18 | 0 | 0.0 | 0.0 | 0.00 | 1.02 | 0.56 | 99 | 1010.1 |
| 20260507120042 | 18 | 0 | 0.0 | 0.0 | 0.03 | 1.02 | 0.56 | 99 | 1010.0 |
| 20260507114543 | 17 | 0 | 0.0 | 0.0 | 0.03 | 1.02 | 0.56 | 98 | 1010.3 |
| 20260507113038 | 17 | 0 | 0.0 | 0.0 | 0.03 | 1.02 | 0.56 | 98 | 1010.0 |
| 20260507111545 | 17 | 0 | 0.0 | 0.0 | 0.05 | 1.02 | 0.56 | 98 | 1010.6 |
| 20260507110038 | 17 | 0 | 0.0 | 0.0 | 0.03 | 0.97 | 0.51 | 98 | 1010.6 |
| 20260507104536 | 17 | 0 | 0.0 | 0.0 | 0.03 | 0.97 | 0.51 | 98 | 1010.5 |
| 20260507103042 | 17 | 0 | 0.0 | 0.0 | 0.03 | 0.97 | 0.51 | 98 | 1010.0 |
| 20260507101546 | 17 | 0 | 0.0 | 0.0 | 0.00 | 0.94 | 0.48 | 98 | 1010.2 |
| 20260507100041 | 17 | 0 | 0.0 | 0.0 | 0.00 | 0.94 | 0.46 | 98 | 1010.0 |
| 20260507094541 | 17 | 0 | 0.0 | 0.0 | 0.00 | 0.94 | 0.46 | 98 | 1010.0 |
| 20260507093043 | 17 | 0 | 0.0 | 0.0 | 0.00 | 0.94 | 0.46 | 98 | 1010.0 |
| 20260507091538 | 17 | 0 | 0.0 | 0.0 | 0.00 | 0.94 | 0.46 | 98 | 1010.2 |
| 20260507090042 | 17 | 0 | 0.0 | 0.0 | 0.00 | 0.94 | 0.46 | 98 | 1010.1 |
| 20260507084543 | 17 | 0 | 0.0 | 0.0 | 0.00 | 0.91 | 0.46 | 98 | 1010.7 |
| 20260507083041 | 17 | 0 | 0.0 | 0.0 | 0.00 | 0.91 | 0.46 | 98 | 1010.2 |
| 20260507081538 | 17 | 0 | 0.0 | 0.0 | 0.00 | 0.91 | 0.46 | 98 | 1011.0 |
| 20260507080039 | 17 | 0 | 0.0 | 0.0 | 0.00 | 0.91 | 0.46 | 98 | 1011.2 |
| 20260507074536 | 17 | 0 | 0.0 | 0.0 | 0.00 | 0.91 | 0.46 | 98 | 1010.4 |
| 20260507073035 | 17 | 0 | 0.0 | 0.0 | 0.00 | 0.91 | 0.46 | 98 | 1010.8 |
| 20260507071557 | 17 | 0 | 0.0 | 0.0 | 0.00 | 0.89 | 0.43 | 98 | 1011.4 |
| 20260507070048 | 17 | 0 | 0.0 | 1.6 | 0.00 | 0.89 | 0.43 | 98 | 1011.4 |
| 20260507064555 | 17 | 0 | 0.0 | 0.0 | 0.00 | 0.89 | 0.43 | 98 | 1011.2 |
| 20260507063040 | 17 | 0 | 0.0 | 0.0 | 0.00 | 0.89 | 0.43 | 98 | 1011.8 |
| 20260507061537 | 17 | 0 | 0.0 | 0.0 | 0.00 | 0.89 | 0.43 | 98 | 1012.1 |
| 20260507060040 | 17 | 0 | 0.0 | 0.0 | 0.00 | 0.89 | 0.43 | 98 | 1011.6 |
| 20260507054540 | 17 | 0 | 0.0 | 0.0 | 0.08 | 0.89 | 0.43 | 98 | 1012.1 |
| 20260507053045 | 17 | 0 | 0.0 | 1.6 | 0.15 | 0.86 | 0.41 | 98 | 1012.2 |
| 20260507051542 | 17 | 0 | 0.0 | 3.2 | 0.23 | 0.86 | 0.41 | 98 | 1012.3 |